Wind_Speed
47 42 36 34 35 36 36 34 33 35 36 35 35 35 33 33 33 34 35 35 33 34 35 35 35 36 36 37 39 41 42 41 38 35 34 34 35 35 35 36 38 39
50 48 42 36 35 37 37 34 32 35 37 37 37 36 35 35 36 36 37 38 37 35 36 37 38 38 40 43 43 41 40 40 38 36 36 35 36 38 39 40 40 41
52 51 47 41 37 38 39 36 34 36 37 38 39 38 36 38 39 38 39 41 42 40 37 39 42 42 43 44 44 42 41 40 39 39 38 38 39 40 42 42 42 42
55 52 50 46 41 39 40 38 35 37 38 39 40 39 37 40 41 39 39 41 43 43 41 41 44 46 45 44 43 43 43 43 41 41 41 42 42 42 42 43 43 43
58 55 50 47 44 42 42 41 37 38 39 40 41 40 37 40 43 42 40 41 42 43 43 43 44 46 46 45 44 44 45 44 42 43 43 43 42 41 41 42 43 43
59 59 54 46 42 43 45 44 39 38 39 41 42 41 37 39 44 45 43 43 43 44 43 43 43 45 46 46 45 45 44 42 42 43 43 42 42 42 42 41 41 41
56 61 60 52 43 42 47 46 41 39 41 42 43 42 40 40 44 47 47 47 47 46 44 42 42 44 47 49 48 46 45 44 43 43 42 42 44 45 44 43 42 41
52 57 62 61 51 44 47 49 44 41 42 43 43 43 43 44 44 47 49 48 48 48 46 43 42 44 46 49 50 48 47 46 45 44 44 44 45 46 45 45 45 44
49 53 59 64 57 47 48 50 47 43 42 43 44 45 46 46 45 47 49 49 48 50 48 44 43 42 42 45 48 48 48 47 47 48 48 47 48 48 47 47 47 46
44 50 55 60 58 51 49 51 50 46 43 43 45 46 47 47 46 47 49 49 50 52 51 47 44 43 41 42 45 47 48 49 50 52 52 50 50 50 50 50 50 49
40 46 52 57 58 55 53 53 54 50 45 46 47 47 47 48 48 48 48 49 51 54 54 51 48 46 44 44 46 48 50 52 53 53 52 51 50 50 50 50 50 49
36 42 49 54 58 59 57 55 56 54 49 48 49 47 45 46 48 49 48 47 47 51 54 54 51 48 46 47 49 49 51 53 54 53 50 49 48 48 48 48 48 47
33 38 44 51 57 58 57 56 57 57 53 50 50 48 45 43 45 47 49 46 44 47 52 53 53 51 48 47 49 49 49 51 50 49 47 46 46 46 46 46 46 47
30 34 40 47 54 56 55 54 56 58 56 52 50 51 48 44 42 44 47 47 46 47 50 51 51 50 49 47 47 47 46 46 46 46 46 44 44 44 45 46 48 49
28 31 36 42 49 53 54 55 55 56 57 54 52 53 51 46 43 44 44 45 47 48 48 49 49 49 49 48 48 47 45 45 45 46 46 44 43 44 46 48 50 50
28 29 32 37 44 49 52 55 56 55 56 55 54 54 54 48 45 45 45 44 45 46 46 46 47 47 48 48 47 47 46 45 45 46 46 45 45 45 46 47 47 46
29 29 31 34 40 45 48 51 55 57 57 57 56 56 56 52 47 47 46 45 45 46 46 45 44 44 45 45 45 46 46 46 46 47 46 46 46 45 44 44 43 43
32 30 31 34 38 42 45 48 52 56 58 59 58 58 58 56 52 50 49 47 46 46 48 48 48 46 45 45 44 45 45 46 47 47 47 46 46 45 44 43 43 42
36 34 33 34 38 42 43 46 50 53 57 59 60 59 59 58 55 54 53 51 49 47 48 50 51 52 50 48 46 45 45 45 46 47 47 46 46 45 44 44 44 43
40 38 36 35 38 42 44 45 48 51 54 57 59 59 59 59 59 57 56 56 54 51 49 49 51 52 53 52 50 47 44 44 45 46 46 46 46 46 46 46 45 44
43 42 40 38 39 41 44 46 47 49 52 55 56 56 57 60 61 60 59 58 57 55 53 51 51 52 53 53 52 49 47 46 47 47 48 48 48 48 47 47 46 46
46 45 44 43 41 42 44 46 48 49 50 52 54 54 55 58 60 60 59 58 57 55 53 52 51 52 53 54 54 52 50 50 50 50 50 50 50 49 49 48 48 48
49 49 48 47 46 45 44 45 48 51 51 51 53 54 55 57 58 59 59 58 56 54 53 52 50 51 53 54 55 55 54 53 53 53 53 52 52 52 52 52 52 51
51 51 51 50 50 49 48 46 47 50 52 53 53 54 55 57 58 59 60 60 59 57 56 54 52 53 55 55 55 55 55 55 56 56 55 55 55 56 56 55 54 52
51 53 53 53 53 53 53 51 48 48 51 54 55 55 56 57 58 59 60 61 61 61 61 59 58 58 58 57 57 57 57 58 58 58 58 58 58 59 58 57 55 54
49 52 55 56 56 55 56 56 54 51 50 52 55 57 57 58 58 58 59 60 61 62 63 63 63 63 62 61 61 61 60 61 60 58 59 59 60 60 59 58 57 58
Wind_Direction
237 235 236 241 239 237 238 239 239 237 236 235 234 234 230 223 222 220 216 218 227 237 235 230 230 229 230 237 242 245 249 252 258 259 257 256 257 258 258 260 263 265
237 233 233 236 235 234 238 240 240 236 234 235 236 236 232 222 219 221 218 217 223 233 236 231 229 229 230 234 238 242 247 250 255 257 255 255 258 259 260 264 267 269
235 233 231 233 233 233 235 238 239 237 233 234 237 237 232 222 219 222 222 219 222 229 235 234 232 232 232 234 239 242 244 248 253 255 256 259 263 262 263 267 270 271
234 232 230 231 232 233 233 233 236 238 235 234 235 235 232 224 219 222 225 224 224 228 232 235 236 238 238 237 240 242 243 247 253 258 261 265 267 265 266 269 271 272
235 230 228 229 232 232 231 231 233 237 236 233 232 232 232 228 222 221 225 227 227 229 232 235 236 238 242 242 241 242 244 248 255 260 262 264 265 266 268 269 270 271
237 230 227 227 228 228 229 230 230 232 233 231 231 231 233 232 224 221 224 227 229 230 232 236 236 235 238 241 243 245 245 248 254 257 258 258 260 264 267 268 269 272
239 232 227 225 226 227 227 229 229 229 228 229 232 232 233 234 227 222 225 227 230 232 232 236 239 236 236 239 242 244 244 247 251 254 254 254 257 263 267 269 271 275
241 234 229 227 228 228 227 227 227 228 227 227 231 231 231 233 230 225 227 230 231 233 235 238 240 240 240 241 241 241 242 245 247 250 252 254 258 264 267 268 271 274
241 235 230 227 226 227 227 226 226 228 228 226 229 230 230 232 233 230 231 233 233 234 237 240 241 241 242 244 243 240 241 243 242 244 248 252 257 262 264 266 268 270
242 236 230 225 224 225 227 226 226 227 228 226 228 232 232 233 234 234 234 235 236 236 237 238 240 242 244 246 245 241 240 241 241 244 248 253 256 260 263 265 266 267
244 236 230 225 223 224 226 226 227 227 226 228 230 233 234 235 236 237 237 236 237 239 238 237 239 242 244 247 247 244 241 241 242 246 251 254 257 260 263 264 264 265
246 238 231 225 222 224 226 227 227 227 226 228 232 234 236 238 239 240 241 240 239 240 240 239 239 241 242 244 246 246 245 244 245 248 252 256 258 260 261 262 263 264
245 239 234 228 224 224 226 226 227 228 227 227 231 234 236 238 241 242 242 242 242 241 241 241 241 240 242 243 242 244 247 248 247 249 253 256 258 259 261 263 265 266
245 239 236 231 226 224 224 224 225 227 228 229 231 233 235 236 238 241 242 242 242 242 243 243 243 243 244 243 241 242 245 246 246 248 252 256 258 261 263 266 266 267
245 239 237 235 230 226 224 223 223 225 227 230 232 232 233 234 234 237 241 242 242 243 245 245 246 247 247 246 244 243 244 244 245 248 251 255 258 261 263 265 266 267
245 238 237 239 235 229 224 223 223 225 226 228 231 232 232 232 232 234 238 241 242 243 245 246 246 247 248 248 247 246 246 246 246 248 250 253 256 258 260 261 262 263
245 237 236 240 240 233 226 223 224 225 226 227 229 232 233 233 232 232 235 238 239 240 242 243 244 244 245 247 248 247 247 248 248 248 249 251 253 255 256 257 258 259
246 238 234 238 243 238 229 223 223 225 226 227 228 230 234 235 233 233 235 237 237 237 238 240 243 245 246 247 248 249 249 249 249 249 248 249 251 252 253 255 256 257
245 241 235 235 241 242 233 225 223 225 226 227 228 230 233 235 235 235 236 237 237 238 239 241 243 245 247 250 251 251 250 249 249 248 248 248 249 250 252 254 256 257
243 241 237 234 237 242 239 230 225 225 226 227 228 229 232 234 235 236 237 238 239 241 243 245 246 246 248 250 251 251 250 249 249 249 249 249 250 251 253 254 255 256
242 240 238 235 234 238 240 237 230 227 227 228 228 229 231 233 235 236 238 239 240 243 245 247 248 248 248 248 248 248 247 247 248 248 249 249 250 253 255 255 256 257
242 240 238 235 233 234 238 238 236 232 229 229 229 228 229 232 235 236 238 239 240 241 243 243 243 245 245 246 246 246 247 247 247 247 248 249 252 254 256 257 258 260
240 240 239 235 232 232 234 236 237 236 233 231 231 231 230 231 233 235 236 237 237 237 238 239 239 240 241 242 244 246 247 248 249 250 251 252 254 256 257 258 260 261
239 239 239 238 234 231 232 234 235 236 236 234 232 232 233 233 233 234 235 236 236 236 236 237 237 237 239 240 242 244 245 247 250 252 253 254 256 257 258 260 261 262
240 238 238 239 236 233 231 232 233 234 236 236 233 232 232 234 235 236 237 238 238 238 239 238 238 239 239 240 241 242 244 247 249 251 252 253 255 256 258 260 262 263
244 240 238 238 238 235 232 232 232 232 233 235 236 234 232 232 234 235 237 239 240 241 241 241 241 241 242 242 242 243 244 246 248 249 251 252 253 255 258 260 261 262
Height
10639 10641 10643 10645 10646 10648 10649 10651 10653 10655 10657 10659 10662 10664 10666 10669 10672 10674 10675 10677 10679 10680 10681 10682 10683 10685 10687 10688 10688 10689 10690 10691 10692 10694 10695 10695 10695 10696 10696 10696 10696 10696
10633 10635 10638 10640 10641 10642 10644 10645 10647 10649 10651 10654 10655 10657 10660 10663 10666 10668 10671 10673 10675 10676 10677 10677 10678 10680 10681 10682 10683 10685 10686 10687 10689 10690 10691 10691 10692 10692 10692 10692 10692 10692
10626 10629 10632 10634 10635 10636 10638 10639 10641 10643 10646 10648 10650 10651 10653 10656 10659 10663 10666 10668 10670 10671 10672 10673 10673 10674 10675 10677 10679 10681 10683 10684 10684 10685 10686 10687 10688 10688 10688 10688 10688 10688
10619 10623 10625 10627 10629 10630 10633 10634 10636 10638 10641 10644 10645 10646 10648 10650 10653 10656 10660 10663 10664 10665 10667 10668 10668 10669 10671 10673 10675 10677 10678 10679 10680 10681 10681 10682 10683 10683 10683 10684 10684 10684
10611 10616 10618 10620 10622 10625 10627 10629 10631 10633 10637 10639 10640 10641 10643 10644 10646 10650 10654 10656 10658 10659 10661 10663 10664 10665 10667 10668 10670 10672 10674 10675 10676 10676 10676 10677 10678 10678 10679 10679 10679 10678
10602 10607 10611 10613 10616 10619 10621 10623 10626 10629 10631 10633 10634 10636 10639 10639 10640 10644 10647 10649 10651 10653 10656 10658 10660 10661 10662 10664 10666 10667 10670 10671 10671 10671 10672 10673 10673 10673 10673 10674 10674 10673
10593 10598 10604 10607 10610 10613 10615 10618 10621 10624 10626 10628 10630 10633 10635 10634 10635 10639 10640 10642 10644 10647 10650 10653 10654 10656 10657 10659 10661 10663 10665 10666 10666 10666 10668 10670 10669 10668 10668 10669 10669 10668
10584 10589 10595 10600 10604 10607 10610 10612 10615 10618 10620 10623 10625 10628 10630 10631 10632 10634 10635 10636 10640 10643 10646 10648 10650 10652 10654 10655 10657 10658 10660 10662 10662 10663 10665 10666 10664 10664 10665 10665 10664 10664
10577 10581 10586 10592 10597 10601 10604 10607 10610 10612 10615 10618 10621 10623 10625 10627 10629 10631 10632 10634 10637 10639 10641 10644 10646 10648 10650 10651 10652 10654 10655 10657 10659 10659 10659 10660 10660 10660 10661 10661 10660 10660
10570 10574 10579 10584 10590 10595 10598 10601 10604 10607 10610 10613 10615 10617 10620 10623 10624 10626 10628 10630 10632 10634 10636 10639 10641 10643 10646 10646 10647 10649 10651 10652 10653 10653 10653 10655 10656 10656 10657 10656 10655 10655
10564 10567 10572 10578 10584 10588 10592 10595 10598 10602 10605 10607 10609 10612 10614 10617 10619 10620 10622 10625 10627 10628 10630 10634 10636 10639 10641 10641 10642 10644 10646 10647 10648 10648 10649 10650 10651 10652 10652 10651 10651 10651
10559 10562 10566 10571 10577 10581 10585 10588 10592 10596 10600 10602 10604 10607 10609 10611 10613 10615 10617 10620 10623 10624 10625 10627 10631 10633 10636 10637 10637 10639 10640 10642 10643 10643 10644 10646 10646 10647 10647 10646 10646 10646
10555 10557 10560 10564 10570 10575 10578 10582 10586 10590 10594 10596 10599 10601 10603 10605 10608 10610 10612 10615 10618 10618 10619 10621 10625 10628 10630 10632 10632 10633 10635 10636 10637 10639 10640 10641 10641 10641 10641 10641 10641 10641
10551 10553 10555 10558 10563 10568 10572 10575 10579 10583 10587 10590 10593 10595 10598 10600 10603 10605 10607 10609 10611 10612 10614 10616 10619 10622 10624 10626 10627 10628 10629 10630 10632 10634 10635 10636 10636 10636 10636 10635 10635 10636
10547 10549 10551 10553 10557 10561 10565 10569 10573 10577 10581 10584 10586 10589 10592 10596 10598 10600 10601 10603 10605 10607 10609 10611 10613 10615 10617 10619 10622 10623 10624 10625 10627 10629 10630 10630 10631 10631 10630 10630 10629 10630
10542 10544 10547 10549 10551 10555 10559 10563 10566 10570 10574 10577 10580 10582 10586 10590 10594 10595 10595 10597 10599 10601 10603 10605 10607 10608 10610 10612 10615 10617 10619 10620 10621 10623 10624 10624 10625 10625 10625 10625 10624 10624
10538 10540 10542 10544 10546 10549 10553 10557 10560 10564 10568 10571 10574 10577 10580 10584 10587 10589 10590 10591 10593 10595 10597 10599 10601 10602 10604 10606 10608 10611 10612 10614 10615 10616 10617 10618 10619 10619 10620 10620 10619 10619
10533 10536 10538 10540 10541 10543 10547 10551 10555 10558 10561 10564 10568 10571 10574 10577 10580 10582 10584 10585 10587 10588 10591 10593 10595 10596 10598 10600 10602 10604 10606 10607 10608 10610 10611 10612 10612 10613 10613 10614 10614 10614
10528 10531 10533 10535 10537 10538 10542 10546 10549 10552 10555 10558 10561 10565 10568 10571 10574 10576 10577 10579 10581 10582 10585 10587 10589 10590 10592 10593 10595 10597 10599 10600 10602 10603 10604 10605 10605 10606 10607 10608 10608 10608
10523 10526 10528 10531 10532 10533 10536 10540 10544 10546 10549 10551 10555 10558 10562 10564 10566 10568 10570 10572 10574 10577 10579 10581 10583 10584 10586 10587 10588 10590 10592 10594 10595 10596 10597 10598 10599 10600 10601 10602 10602 10603
10518 10520 10523 10525 10527 10529 10531 10534 10537 10540 10543 10545 10548 10552 10555 10556 10557 10560 10563 10565 10568 10571 10573 10575 10576 10578 10579 10581 10582 10584 10585 10586 10588 10589 10590 10592 10593 10594 10595 10596 10596 10597
10511 10514 10517 10519 10522 10524 10525 10527 10530 10533 10536 10539 10542 10546 10548 10548 10550 10554 10557 10559 10563 10565 10566 10568 10570 10572 10573 10574 10575 10577 10578 10579 10581 10583 10584 10586 10587 10588 10589 10590 10590 10591
10504 10507 10510 10513 10515 10517 10520 10521 10524 10526 10529 10532 10535 10538 10541 10542 10545 10547 10550 10553 10556 10558 10559 10561 10564 10565 10565 10566 10568 10570 10571 10572 10573 10575 10577 10579 10580 10581 10582 10583 10584 10585
10497 10499 10502 10505 10508 10510 10513 10515 10517 10519 10521 10525 10528 10531 10533 10536 10538 10541 10544 10546 10549 10551 10552 10554 10555 10556 10557 10559 10561 10562 10563 10565 10566 10568 10570 10571 10572 10573 10575 10575 10576 10577
10490 10492 10494 10497 10500 10503 10505 10507 10510 10512 10514 10517 10520 10523 10526 10528 10531 10535 10537 10539 10542 10544 10545 10546 10547 10548 10550 10552 10554 10555 10556 10557 10559 10560 10562 10563 10564 10565 10566 10567 10568 10569
10482 10484 10486 10488 10491 10495 10497 10500 10502 10505 10507 10509 10512 10515 10518 10521 10524 10527 10530 10532 10534 10536 10538 10539 10540 10541 10543 10545 10546 10548 10549 10549 10551 10553 10554 10555 10556 10557 10558 10559 10560 10560